N88D CYWG-KGFK

Flight info

Callsign N88D
Flight time 1h 0m
Altitude 3500
Route DCT KGFK
Aircraft C172/L-SDGR/S

Departure

Time 2026-05-07 01:13
Airport Winnipeg / James Armstrong Richardson International Airport (CYWG)

Arrival

Time 2026-05-07 02:14
Airport Grand Forks International Airport (KGFK)
Time Latitude Longitude Altitude Speed Heading
2026-05-07 00:34 49.90429 -97.23009 778 ft 0 kts 322°
2026-05-07 00:49 49.90436 -97.22998 778 ft 0 kts 115°
2026-05-07 01:03 49.90412 -97.22974 779 ft 11 kts 173°
2026-05-07 01:03 49.90322 -97.23012 779 ft 13 kts 196°
2026-05-07 01:04 49.90245 -97.23000 779 ft 12 kts 194°
2026-05-07 01:04 49.90179 -97.23083 780 ft 14 kts 255°
2026-05-07 01:04 49.90122 -97.23186 781 ft 16 kts 161°
2026-05-07 01:04 49.90035 -97.23076 779 ft 16 kts 139°
2026-05-07 01:05 49.89951 -97.22964 776 ft 16 kts 139°
2026-05-07 01:05 49.89880 -97.22857 775 ft 13 kts 132°
2026-05-07 01:05 49.89816 -97.22737 775 ft 15 kts 129°
2026-05-07 01:05 49.89756 -97.22625 777 ft 13 kts 127°
2026-05-07 01:06 49.89697 -97.22530 777 ft 12 kts 167°
2026-05-07 01:06 49.89623 -97.22628 774 ft 15 kts 229°
2026-05-07 01:06 49.89520 -97.22807 772 ft 28 kts 229°
2026-05-07 01:06 49.89492 -97.23067 771 ft 24 kts 274°
2026-05-07 01:07 49.89511 -97.23313 772 ft 21 kts 276°
2026-05-07 01:07 49.89527 -97.23518 775 ft 17 kts 276°
2026-05-07 01:07 49.89540 -97.23677 779 ft 13 kts 277°
2026-05-07 01:07 49.89548 -97.23791 782 ft 8 kts 280°
2026-05-07 01:08 49.89554 -97.23863 784 ft 9 kts 275°
2026-05-07 01:08 49.89563 -97.23991 785 ft 0 kts 276°
2026-05-07 01:10 49.89564 -97.23993 785 ft 1 kts 277°
2026-05-07 01:10 49.89567 -97.24043 785 ft 0 kts 275°
2026-05-07 01:11 49.89567 -97.24048 785 ft 4 kts 275°
2026-05-07 01:11 49.89604 -97.24167 786 ft 14 kts 349°
2026-05-07 01:12 49.89655 -97.24158 786 ft 0 kts
2026-05-07 01:12 49.89658 -97.24158 786 ft 7 kts
2026-05-07 01:12 49.89900 -97.24103 779 ft 62 kts 10°
2026-05-07 01:13 49.90403 -97.24006 909 ft 79 kts 12°
2026-05-07 01:13 49.90973 -97.23907 1084 ft 84 kts 10°
2026-05-07 01:13 49.91496 -97.24098 1351 ft 87 kts 310°
2026-05-07 01:13 49.91393 -97.24918 1721 ft 82 kts 224°
2026-05-07 01:14 49.90877 -97.25345 1943 ft 87 kts 191°
2026-05-07 01:14 49.90274 -97.25219 2180 ft 85 kts 167°
2026-05-07 01:14 49.89732 -97.24919 2432 ft 83 kts 154°
2026-05-07 01:14 49.89224 -97.24494 2655 ft 79 kts 149°
2026-05-07 01:15 49.88730 -97.24193 2858 ft 82 kts 176°
2026-05-07 01:15 49.88115 -97.24187 2962 ft 97 kts 185°
2026-05-07 01:15 49.87369 -97.24203 3121 ft 99 kts 182°
2026-05-07 01:15 49.86621 -97.24175 3129 ft 122 kts 183°
2026-05-07 01:16 49.85741 -97.24183 3171 ft 128 kts 184°
2026-05-07 01:16 49.84856 -97.24181 3252 ft 129 kts 182°
2026-05-07 01:16 49.83963 -97.24160 3279 ft 128 kts 181°
2026-05-07 01:16 49.83074 -97.24133 3297 ft 128 kts 182°
2026-05-07 01:17 49.82240 -97.24099 3489 ft 116 kts 182°
2026-05-07 01:17 49.81406 -97.24073 3495 ft 123 kts 182°
2026-05-07 01:17 49.80540 -97.24043 3508 ft 126 kts 182°
2026-05-07 01:17 49.79665 -97.24011 3501 ft 124 kts 182°
2026-05-07 01:18 49.78819 -97.23978 3495 ft 119 kts 182°
2026-05-07 01:18 49.77999 -97.23947 3496 ft 118 kts 182°
2026-05-07 01:18 49.77171 -97.23918 3497 ft 119 kts 182°
2026-05-07 01:18 49.76338 -97.23887 3499 ft 120 kts 183°
2026-05-07 01:19 49.75777 -97.23865 3501 ft 119 kts 183°
2026-05-07 01:19 49.74945 -97.23835 3497 ft 120 kts 182°
2026-05-07 01:19 49.74123 -97.23803 3499 ft 119 kts 180°
2026-05-07 01:19 49.73291 -97.23773 3498 ft 120 kts 180°
2026-05-07 01:20 49.72460 -97.23742 3496 ft 119 kts 181°
2026-05-07 01:20 49.71633 -97.23712 3503 ft 118 kts 180°
2026-05-07 01:20 49.70809 -97.23681 3498 ft 118 kts 180°
2026-05-07 01:20 49.69986 -97.23650 3499 ft 119 kts 181°
2026-05-07 01:21 49.69152 -97.23620 3501 ft 120 kts 180°
2026-05-07 01:21 49.68321 -97.23589 3506 ft 120 kts 181°
2026-05-07 01:21 49.67483 -97.23558 3518 ft 120 kts 180°
2026-05-07 01:21 49.66643 -97.23527 3510 ft 121 kts 180°
2026-05-07 01:22 49.65804 -97.23497 3510 ft 120 kts 180°
2026-05-07 01:22 49.64963 -97.23465 3509 ft 121 kts 181°
2026-05-07 01:22 49.64115 -97.23434 3517 ft 121 kts 180°
2026-05-07 01:22 49.63271 -97.23403 3516 ft 122 kts 181°
2026-05-07 01:23 49.62424 -97.23371 3509 ft 122 kts 181°
2026-05-07 01:23 49.61581 -97.23341 3512 ft 121 kts 181°
2026-05-07 01:23 49.60744 -97.23310 3511 ft 120 kts 180°
2026-05-07 01:23 49.59906 -97.23278 3513 ft 121 kts 181°
2026-05-07 01:24 49.59071 -97.23247 3510 ft 120 kts 180°
2026-05-07 01:24 49.58232 -97.23218 3512 ft 120 kts 180°
2026-05-07 01:24 49.57393 -97.23186 3510 ft 121 kts 180°
2026-05-07 01:24 49.56547 -97.23156 3512 ft 122 kts 180°
2026-05-07 01:25 49.55704 -97.23124 3524 ft 121 kts 180°
2026-05-07 01:25 49.54858 -97.23093 3521 ft 122 kts 181°
2026-05-07 01:25 49.54005 -97.23062 3518 ft 122 kts 180°
2026-05-07 01:25 49.53159 -97.23030 3523 ft 121 kts 180°
2026-05-07 01:26 49.52311 -97.22998 3513 ft 122 kts 181°
2026-05-07 01:26 49.51469 -97.22968 3515 ft 120 kts 180°
2026-05-07 01:26 49.50634 -97.22937 3513 ft 120 kts 180°
2026-05-07 01:26 49.49801 -97.22907 3512 ft 120 kts 180°
2026-05-07 01:27 49.48967 -97.22876 3512 ft 120 kts 180°
2026-05-07 01:27 49.48135 -97.22846 3509 ft 120 kts 180°
2026-05-07 01:27 49.47301 -97.22814 3515 ft 120 kts 181°
2026-05-07 01:27 49.46465 -97.22785 3508 ft 120 kts 181°
2026-05-07 01:28 49.45631 -97.22755 3506 ft 120 kts 181°
2026-05-07 01:28 49.44805 -97.22722 3506 ft 119 kts 181°
2026-05-07 01:28 49.43978 -97.22692 3513 ft 119 kts 181°
2026-05-07 01:28 49.43155 -97.22665 3525 ft 118 kts 180°
2026-05-07 01:29 49.42335 -97.22634 3523 ft 119 kts 181°
2026-05-07 01:29 49.41508 -97.22603 3524 ft 119 kts 180°
2026-05-07 01:29 49.40678 -97.22573 3524 ft 119 kts 180°
2026-05-07 01:29 49.39848 -97.22542 3522 ft 120 kts 180°
2026-05-07 01:30 49.39014 -97.22511 3523 ft 120 kts 180°
2026-05-07 01:30 49.38178 -97.22480 3528 ft 121 kts 180°
2026-05-07 01:30 49.37342 -97.22450 3522 ft 121 kts 180°
2026-05-07 01:30 49.36501 -97.22420 3525 ft 121 kts 180°
2026-05-07 01:31 49.35676 -97.22389 3523 ft 119 kts 180°
2026-05-07 01:31 49.34837 -97.22359 3527 ft 119 kts 180°
2026-05-07 01:31 49.34022 -97.22329 3520 ft 119 kts 181°
2026-05-07 01:31 49.33197 -97.22299 3521 ft 118 kts 180°
2026-05-07 01:32 49.32376 -97.22269 3521 ft 118 kts 180°
2026-05-07 01:32 49.31547 -97.22239 3520 ft 120 kts 181°
2026-05-07 01:32 49.30713 -97.22209 3524 ft 120 kts 180°
2026-05-07 01:32 49.29883 -97.22181 3518 ft 119 kts 181°
2026-05-07 01:33 49.29052 -97.22148 3518 ft 120 kts 181°
2026-05-07 01:33 49.28220 -97.22118 3520 ft 119 kts 180°
2026-05-07 01:33 49.27391 -97.22089 3517 ft 120 kts 181°
2026-05-07 01:33 49.26557 -97.22058 3519 ft 120 kts 181°
2026-05-07 01:34 49.25720 -97.22027 3528 ft 120 kts 181°
2026-05-07 01:34 49.24888 -97.21997 3515 ft 119 kts 181°
2026-05-07 01:34 49.24056 -97.21967 3516 ft 120 kts 181°
2026-05-07 01:34 49.23220 -97.21937 3515 ft 121 kts 181°
2026-05-07 01:35 49.22383 -97.21906 3521 ft 120 kts 181°
2026-05-07 01:35 49.21549 -97.21875 3518 ft 121 kts 181°
2026-05-07 01:35 49.20712 -97.21846 3522 ft 120 kts 181°
2026-05-07 01:35 49.19879 -97.21815 3520 ft 119 kts 180°
2026-05-07 01:36 49.19052 -97.21784 3516 ft 119 kts 181°
2026-05-07 01:36 49.18224 -97.21755 3514 ft 119 kts 181°
2026-05-07 01:36 49.17398 -97.21725 3514 ft 119 kts 181°
2026-05-07 01:36 49.16569 -97.21695 3512 ft 120 kts 181°
2026-05-07 01:37 49.15736 -97.21665 3513 ft 120 kts 181°
2026-05-07 01:37 49.14903 -97.21635 3515 ft 119 kts 180°
2026-05-07 01:37 49.14074 -97.21605 3513 ft 119 kts 181°
2026-05-07 01:37 49.13240 -97.21576 3515 ft 120 kts 181°
2026-05-07 01:38 49.12407 -97.21545 3515 ft 120 kts 180°
2026-05-07 01:38 49.11577 -97.21514 3515 ft 119 kts 180°
2026-05-07 01:38 49.10747 -97.21484 3518 ft 120 kts 181°
2026-05-07 01:38 49.09911 -97.21454 3515 ft 120 kts 180°
2026-05-07 01:39 49.09074 -97.21423 3517 ft 121 kts 181°
2026-05-07 01:39 49.08234 -97.21393 3515 ft 121 kts 181°
2026-05-07 01:39 49.07396 -97.21363 3515 ft 120 kts 182°
2026-05-07 01:39 49.06576 -97.21332 3513 ft 119 kts 182°
2026-05-07 01:40 49.05747 -97.21302 3510 ft 119 kts 182°
2026-05-07 01:40 49.04925 -97.21274 3509 ft 118 kts 181°
2026-05-07 01:40 49.04107 -97.21244 3511 ft 118 kts 182°
2026-05-07 01:40 49.03287 -97.21214 3513 ft 118 kts 182°
2026-05-07 01:41 49.02459 -97.21184 3509 ft 119 kts 181°
2026-05-07 01:41 49.01632 -97.21154 3506 ft 119 kts 181°
2026-05-07 01:41 49.00800 -97.21125 3505 ft 120 kts 182°
2026-05-07 01:41 48.99963 -97.21095 3503 ft 121 kts 182°
2026-05-07 01:42 48.99126 -97.21065 3517 ft 120 kts 181°
2026-05-07 01:42 48.98294 -97.21034 3506 ft 120 kts 182°
2026-05-07 01:42 48.97463 -97.21006 3502 ft 119 kts 181°
2026-05-07 01:42 48.96640 -97.20976 3503 ft 118 kts 181°
2026-05-07 01:43 48.95819 -97.20947 3506 ft 118 kts 182°
2026-05-07 01:43 48.94994 -97.20917 3504 ft 119 kts 181°
2026-05-07 01:43 48.94165 -97.20888 3504 ft 119 kts 181°
2026-05-07 01:43 48.93332 -97.20858 3496 ft 120 kts 182°
2026-05-07 01:44 48.92494 -97.20828 3495 ft 120 kts 181°
2026-05-07 01:44 48.91659 -97.20797 3493 ft 120 kts 181°
2026-05-07 01:44 48.90831 -97.20768 3499 ft 119 kts 181°
2026-05-07 01:44 48.90003 -97.20739 3495 ft 118 kts 181°
2026-05-07 01:45 48.89180 -97.20708 3502 ft 118 kts 181°
2026-05-07 01:45 48.88361 -97.20680 3493 ft 117 kts 181°
2026-05-07 01:45 48.87543 -97.20650 3491 ft 118 kts 182°
2026-05-07 01:45 48.86719 -97.20621 3492 ft 119 kts 182°
2026-05-07 01:46 48.85893 -97.20592 3497 ft 119 kts 181°
2026-05-07 01:46 48.85062 -97.20562 3491 ft 120 kts 182°
2026-05-07 01:46 48.84230 -97.20532 3491 ft 119 kts 182°
2026-05-07 01:46 48.83399 -97.20503 3490 ft 119 kts 181°
2026-05-07 01:47 48.82569 -97.20472 3488 ft 120 kts 182°
2026-05-07 01:47 48.81738 -97.20442 3488 ft 119 kts 181°
2026-05-07 01:47 48.80909 -97.20413 3488 ft 119 kts 182°
2026-05-07 01:47 48.80081 -97.20383 3487 ft 119 kts 182°
2026-05-07 01:48 48.79255 -97.20354 3493 ft 119 kts 182°
2026-05-07 01:48 48.78427 -97.20325 3486 ft 119 kts 182°
2026-05-07 01:48 48.77632 -97.20295 3486 ft 111 kts 181°
2026-05-07 01:48 48.76837 -97.20267 3490 ft 116 kts 182°
2026-05-07 01:49 48.76032 -97.20239 3494 ft 118 kts 182°
2026-05-07 01:49 48.75203 -97.20210 3498 ft 120 kts 182°
2026-05-07 01:49 48.74368 -97.20180 3500 ft 121 kts 181°
2026-05-07 01:49 48.73528 -97.20151 3500 ft 121 kts 181°
2026-05-07 01:50 48.72688 -97.20120 3500 ft 121 kts 182°
2026-05-07 01:50 48.71846 -97.20090 3499 ft 121 kts 182°
2026-05-07 01:50 48.71003 -97.20060 3500 ft 121 kts 181°
2026-05-07 01:50 48.70161 -97.20029 3497 ft 121 kts 182°
2026-05-07 01:51 48.69321 -97.20000 3500 ft 121 kts 182°
2026-05-07 01:51 48.68479 -97.19971 3498 ft 121 kts 182°
2026-05-07 01:51 48.67636 -97.19941 3500 ft 121 kts 182°
2026-05-07 01:51 48.66793 -97.19910 3501 ft 121 kts 182°
2026-05-07 01:52 48.65949 -97.19881 3501 ft 122 kts 181°
2026-05-07 01:52 48.65105 -97.19851 3503 ft 121 kts 181°
2026-05-07 01:52 48.64262 -97.19820 3500 ft 121 kts 182°
2026-05-07 01:52 48.63421 -97.19790 3503 ft 120 kts 181°
2026-05-07 01:53 48.62583 -97.19761 3500 ft 120 kts 182°
2026-05-07 01:53 48.61746 -97.19713 3498 ft 121 kts 178°
2026-05-07 01:53 48.60910 -97.19587 3499 ft 121 kts 178°
2026-05-07 01:53 48.60073 -97.19479 3501 ft 121 kts 178°
2026-05-07 01:54 48.59239 -97.19392 3503 ft 120 kts 180°
2026-05-07 01:54 48.58401 -97.19322 3503 ft 120 kts 180°
2026-05-07 01:54 48.57563 -97.19271 3505 ft 121 kts 182°
2026-05-07 01:54 48.56723 -97.19242 3508 ft 120 kts 183°
2026-05-07 01:55 48.55884 -97.19230 3504 ft 121 kts 182°
2026-05-07 01:55 48.55042 -97.19207 3508 ft 121 kts 182°
2026-05-07 01:55 48.54201 -97.19186 3505 ft 121 kts 182°
2026-05-07 01:55 48.53360 -97.19163 3506 ft 121 kts 182°
2026-05-07 01:56 48.52520 -97.19137 3511 ft 121 kts 181°
2026-05-07 01:56 48.51683 -97.19112 3516 ft 121 kts 182°
2026-05-07 01:56 48.50841 -97.19087 3498 ft 121 kts 182°
2026-05-07 01:56 48.50003 -97.19060 3500 ft 120 kts 182°
2026-05-07 01:57 48.49171 -97.19035 3496 ft 120 kts 181°
2026-05-07 01:57 48.48337 -97.19010 3496 ft 120 kts 182°
2026-05-07 01:57 48.47500 -97.18984 3497 ft 120 kts 182°
2026-05-07 01:57 48.46675 -97.18959 3495 ft 120 kts 182°
2026-05-07 01:58 48.45840 -97.18934 3494 ft 120 kts 182°
2026-05-07 01:58 48.45006 -97.18909 3493 ft 120 kts 182°
2026-05-07 01:58 48.44167 -97.18883 3493 ft 121 kts 182°
2026-05-07 01:58 48.43327 -97.18857 3493 ft 121 kts 182°
2026-05-07 01:59 48.42490 -97.18831 3488 ft 121 kts 182°
2026-05-07 01:59 48.41647 -97.18806 3488 ft 121 kts 182°
2026-05-07 01:59 48.40803 -97.18780 3488 ft 121 kts 182°
2026-05-07 01:59 48.39956 -97.18754 3488 ft 122 kts 182°
2026-05-07 02:00 48.39111 -97.18729 3486 ft 121 kts 182°
2026-05-07 02:00 48.38265 -97.18703 3486 ft 122 kts 182°
2026-05-07 02:00 48.37415 -97.18677 3493 ft 122 kts 182°
2026-05-07 02:00 48.36568 -97.18652 3485 ft 122 kts 182°
2026-05-07 02:01 48.35721 -97.18625 3488 ft 121 kts 182°
2026-05-07 02:01 48.34877 -97.18599 3488 ft 121 kts 182°
2026-05-07 02:01 48.34034 -97.18574 3489 ft 121 kts 182°
2026-05-07 02:01 48.33194 -97.18548 3486 ft 121 kts 182°
2026-05-07 02:02 48.32353 -97.18523 3487 ft 121 kts 182°
2026-05-07 02:02 48.31520 -97.18497 3501 ft 120 kts 182°
2026-05-07 02:02 48.30682 -97.18472 3503 ft 121 kts 182°
2026-05-07 02:02 48.29838 -97.18446 3502 ft 121 kts 182°
2026-05-07 02:03 48.28994 -97.18421 3504 ft 121 kts 182°
2026-05-07 02:03 48.28149 -97.18395 3505 ft 121 kts 182°
2026-05-07 02:03 48.27301 -97.18370 3503 ft 122 kts 182°
2026-05-07 02:03 48.26453 -97.18344 3499 ft 122 kts 182°
2026-05-07 02:04 48.25583 -97.18319 3398 ft 127 kts 182°
2026-05-07 02:04 48.24685 -97.18294 3248 ft 130 kts 182°
2026-05-07 02:04 48.23796 -97.18267 3093 ft 130 kts 181°
2026-05-07 02:04 48.22893 -97.18240 2934 ft 130 kts 181°
2026-05-07 02:05 48.21993 -97.18212 2778 ft 130 kts 181°
2026-05-07 02:05 48.21089 -97.18185 2619 ft 130 kts 182°
2026-05-07 02:05 48.20186 -97.18158 2463 ft 130 kts 181°
2026-05-07 02:05 48.19295 -97.18132 2301 ft 126 kts 181°
2026-05-07 02:06 48.18427 -97.18105 2139 ft 123 kts 181°
2026-05-07 02:06 48.17573 -97.18078 1979 ft 123 kts 181°
2026-05-07 02:06 48.16716 -97.18053 1826 ft 122 kts 180°
2026-05-07 02:06 48.15897 -97.18026 1807 ft 115 kts 181°
2026-05-07 02:07 48.15112 -97.18001 1802 ft 111 kts 181°
2026-05-07 02:07 48.13854 -97.17961 1804 ft 106 kts 181°
2026-05-07 02:07 48.13116 -97.17940 1802 ft 107 kts 181°
2026-05-07 02:08 48.12360 -97.17916 1806 ft 111 kts 181°
2026-05-07 02:08 48.11581 -97.17894 1814 ft 112 kts 181°
2026-05-07 02:08 48.10812 -97.17871 1810 ft 112 kts 181°
2026-05-07 02:08 48.10035 -97.17848 1810 ft 111 kts 181°
2026-05-07 02:09 48.09261 -97.17823 1809 ft 112 kts 180°
2026-05-07 02:09 48.08470 -97.17800 1811 ft 114 kts 180°
2026-05-07 02:09 48.07673 -97.17776 1807 ft 116 kts 181°
2026-05-07 02:09 48.06868 -97.17752 1808 ft 116 kts 181°
2026-05-07 02:10 48.06065 -97.17728 1802 ft 115 kts 181°
2026-05-07 02:10 48.05271 -97.17707 1798 ft 114 kts 183°
2026-05-07 02:10 48.04483 -97.17747 1803 ft 113 kts 184°
2026-05-07 02:10 48.03691 -97.17788 1800 ft 115 kts 184°
2026-05-07 02:11 48.02896 -97.17837 1804 ft 114 kts 184°
2026-05-07 02:11 48.02109 -97.17884 1805 ft 113 kts 185°
2026-05-07 02:11 48.01317 -97.17922 1801 ft 114 kts 185°
2026-05-07 02:11 48.00525 -97.17956 1801 ft 114 kts 184°
2026-05-07 02:12 47.99732 -97.18001 1795 ft 115 kts 185°
2026-05-07 02:12 47.98905 -97.18006 1597 ft 115 kts 181°
2026-05-07 02:12 47.98181 -97.18034 1347 ft 95 kts 183°
2026-05-07 02:12 47.97598 -97.18078 1227 ft 74 kts 181°
2026-05-07 02:13 47.97089 -97.18104 1082 ft 72 kts 179°
2026-05-07 02:13 47.96611 -97.18106 1024 ft 68 kts 179°
2026-05-07 02:13 47.96142 -97.18112 949 ft 66 kts 178°
2026-05-07 02:13 47.95672 -97.18120 856 ft 65 kts 178°
2026-05-07 02:14 47.95292 -97.18120 847 ft 36 kts 182°
2026-05-07 02:14 47.95151 -97.18102 846 ft 12 kts 147°
2026-05-07 02:14 47.95128 -97.18002 845 ft 9 kts 121°
2026-05-07 02:14 47.95050 -97.17963 845 ft 13 kts 178°
2026-05-07 02:15 47.94973 -97.17961 843 ft 9 kts 177°
2026-05-07 02:15 47.94917 -97.17962 837 ft 7 kts 181°
2026-05-07 02:15 47.94824 -97.17961 844 ft 20 kts 179°
2026-05-07 02:15 47.94634 -97.17962 844 ft 31 kts 182°
2026-05-07 02:16 47.94465 -97.17865 842 ft 19 kts 107°
2026-05-07 02:16 47.94435 -97.17808 845 ft 1 kts 183°
2026-05-07 02:16 47.94487 -97.17766 845 ft 9 kts 46°
2026-05-07 02:16 47.94523 -97.17747 842 ft 4 kts 322°
2026-05-07 02:17 47.94526 -97.17753 843 ft 0 kts 288°